Theta_e
358 357 356 356 357 356 355 354 347 346 351 352 353 350 353 352 354 350 349 353 350 350 350 352 353 347 352 349 347 346 346 347 346 345 348 349 355 351 353 337 337 345 348
357 357 357 357 356 357 357 355 351 344 343 350 353 354 356 354 352 351 352 350 353 353 352 352 351 350 348 345 348 349 349 350 351 348 348 348 349 351 352 350 351 350 350
354 356 357 357 357 357 356 356 354 348 343 345 351 352 353 353 354 356 352 350 352 351 352 351 352 352 352 350 350 349 349 351 351 352 350 350 349 349 351 352 351 350 350
353 354 356 357 358 357 357 356 356 353 349 343 340 348 351 352 353 354 354 351 352 351 352 352 351 351 351 352 351 351 349 349 350 350 350 349 349 349 350 351 350 346 347
351 352 354 356 357 358 358 358 357 356 354 350 345 342 346 351 352 352 351 353 352 352 352 353 351 349 351 351 351 351 351 351 351 350 349 349 349 351 351 351 347 346 347
350 351 352 353 354 355 357 358 358 357 355 354 352 347 345 346 346 350 352 352 352 353 353 354 352 354 352 344 335 332 348 353 344 347 345 344 344 345 344 346 347 346 346
349 350 350 350 351 352 354 355 355 355 356 355 354 354 350 344 343 343 347 350 353 353 352 352 354 351 350 348 342 341 341 336 335 335 338 335 335 334 338 339 345 348 347
344 348 349 350 350 350 351 353 353 354 354 355 355 354 353 352 347 344 340 344 348 348 352 353 351 349 351 355 355 355 353 345 339 338 340 336 336 333 337 345 344 345 349
331 338 342 346 347 350 350 351 351 351 352 353 354 355 354 353 353 350 347 344 345 338 336 346 351 354 351 344 352 355 353 352 349 350 348 345 344 344 343 344 343 345 342
328 325 325 330 339 343 345 348 352 351 352 352 352 352 353 353 354 353 350 349 348 347 346 336 333 345 346 349 348 345 344 338 340 343 346 347 347 346 347 346 341 345 345
325 325 325 323 323 328 338 345 346 347 349 352 352 353 352 352 354 352 353 351 350 349 349 348 344 339 337 337 340 342 339 338 343 343 344 346 345 345 347 349 349 348 345
325 324 322 315 321 323 321 334 337 342 345 347 349 351 353 354 352 353 354 354 350 350 350 349 348 345 340 339 340 340 341 341 344 347 346 345 343 342 343 345 346 347 349
319 325 321 317 312 317 320 321 333 335 342 343 349 350 350 351 350 352 352 352 351 352 350 349 350 350 349 347 346 345 345 344 344 344 347 347 346 342 341 343 344 346 349
320 323 326 323 322 313 318 325 326 332 336 337 337 342 344 352 352 350 353 355 355 351 350 350 349 349 349 350 351 351 350 350 350 350 349 348 348 345 343 345 346 346 347
320 321 323 324 322 321 318 320 322 324 327 328 333 332 334 336 335 336 349 352 355 354 353 353 351 351 349 349 350 351 353 353 352 350 351 351 350 347 345 346 346 347 346
320 320 321 322 322 321 319 319 319 316 317 318 320 324 322 323 323 323 324 328 344 353 354 354 353 353 354 354 353 353 354 355 353 354 353 351 351 350 349 349 349 349 347
316 316 319 320 320 320 320 318 318 319 321 323 323 323 322 322 323 322 322 324 326 338 347 352 354 353 352 353 356 356 356 355 355 353 352 354 353 353 352 351 350 351 349
311 313 314 316 317 318 319 319 319 319 320 321 323 324 327 327 325 321 322 323 325 331 346 349 349 350 351 352 354 355 356 359 358 356 354 354 354 353 351 350 350 349 348
308 310 312 314 317 317 318 319 319 319 319 319 321 323 325 328 328 324 323 326 325 329 341 346 347 348 350 349 352 355 354 355 356 355 355 356 355 355 353 351 348 348 349
305 308 309 311 313 315 315 316 318 319 319 320 321 322 323 325 323 318 318 321 325 328 339 344 342 345 347 343 347 348 352 355 355 355 356 355 355 355 354 353 354 355 355
303 304 306 307 310 312 315 315 316 317 319 319 321 321 322 322 318 317 317 318 322 328 332 342 343 344 349 346 351 352 353 354 355 355 351 356 355 354 353 353 353 354 354
301 302 303 304 306 309 311 313 315 316 317 318 320 321 320 319 315 316 317 318 321 330 333 339 342 340 340 349 351 349 345 345 347 346 341 347 349 347 343 344 350 353 353
299 299 301 301 302 303 306 309 310 312 314 316 318 317 316 316 316 317 319 320 323 327 337 339 342 341 340 341 345 344 343 342 345 344 342 339 340 342 338 338 339 346 346
297 297 298 298 299 300 301 303 305 307 309 311 313 314 315 314 317 319 321 324 326 329 333 336 338 343 343 343 342 341 339 338 345 346 345 343 344 341 340 342 343 343 344
295 295 295 296 297 298 299 301 302 304 305 307 309 311 312 314 316 320 323 325 327 332 333 334 335 341 342 341 340 339 338 338 340 342 344 343 339 337 338 340 341 341 339
294 294 294 295 295 296 297 298 299 302 303 305 307 309 311 312 314 318 322 325 327 327 329 325 324 336 335 334 331 329 330 332 336 335 334 334 334 336 336 334 334 333 332
Wind_Speed
21 22 21 20 19 18 19 18 16 18 16 13 8 10 11 11 11 11 15 10 12 13 14 10 10 15 9 9 9 10 10 10 13 13 13 11 11 19 15 17 16 15 16
20 21 22 21 20 20 20 19 18 16 18 18 15 16 15 14 14 12 12 12 12 12 12 12 13 12 15 15 14 12 11 13 11 17 17 17 15 15 18 22 16 14 15
19 21 21 21 20 21 22 20 21 19 16 17 19 19 18 17 16 15 14 14 13 12 11 11 11 12 15 14 14 14 13 13 12 13 15 14 14 14 15 15 17 16 14
16 20 21 21 21 21 21 22 21 23 21 19 20 23 22 20 18 18 18 17 16 15 14 14 13 14 15 15 15 16 15 16 14 15 14 14 13 12 14 13 14 14 15
6 13 19 19 19 20 21 21 21 22 23 23 22 21 23 22 21 22 21 21 20 19 18 17 17 17 18 19 15 15 15 14 14 14 15 15 13 12 10 14 16 16 17
5 8 14 10 19 20 20 22 22 23 24 25 25 25 24 23 23 25 23 21 23 23 22 20 20 20 23 21 20 18 21 19 20 17 16 17 20 19 15 15 16 18 19
6 7 11 15 15 17 19 21 23 23 23 26 27 27 28 28 26 28 29 28 24 24 25 24 21 20 22 22 20 20 20 22 23 22 24 23 22 21 20 22 17 19 21
5 7 8 9 11 16 20 21 22 24 24 25 27 29 30 31 31 29 32 34 32 31 28 27 26 25 25 20 23 22 24 25 26 25 26 25 25 23 20 20 21 22 22
13 8 9 9 10 11 13 18 22 25 25 27 27 29 30 32 32 32 32 33 32 37 37 35 33 31 32 30 29 28 28 28 23 26 28 28 27 26 25 23 24 20 24
14 15 13 10 8 11 16 13 15 22 22 24 27 29 29 31 31 33 36 33 32 33 34 38 41 41 39 37 36 35 37 37 32 29 28 29 29 30 28 27 29 28 25
13 13 15 14 11 8 4 5 11 18 20 23 25 25 28 30 30 33 34 35 35 33 35 35 36 35 37 40 43 44 45 40 37 35 34 32 31 29 29 28 26 24 26
15 15 15 16 16 14 14 9 8 10 13 21 24 25 27 25 31 34 32 33 37 37 38 35 34 35 38 37 36 38 37 36 37 36 35 34 32 30 28 27 30 31 31
17 18 17 18 19 19 17 14 11 10 9 12 14 21 23 22 32 32 27 36 38 39 41 42 35 36 34 33 35 37 36 36 38 41 39 40 36 33 31 29 28 27 29
21 18 20 18 18 20 18 13 12 11 12 13 13 14 18 20 18 24 23 24 30 33 34 36 42 43 44 41 39 42 41 41 43 43 40 39 36 32 31 30 29 28 30
22 20 20 21 18 19 19 17 18 18 16 18 17 15 12 17 19 19 20 28 28 21 20 26 30 35 45 49 46 43 35 34 36 40 39 34 32 31 32 30 30 29 30
22 22 21 21 21 20 19 21 20 25 27 27 25 26 27 24 21 21 22 25 33 32 32 32 28 27 30 31 32 34 34 35 34 31 28 29 34 32 31 30 29 30 30
18 20 21 22 23 24 24 24 23 21 23 22 24 25 27 26 25 24 27 27 26 28 38 36 34 35 31 32 33 33 34 34 34 30 32 29 28 28 29 30 30 28 29
22 28 27 26 25 26 25 26 26 25 24 21 19 22 26 29 30 27 26 28 35 33 30 33 37 37 38 35 36 38 35 28 29 36 39 37 33 30 31 31 30 29 29
22 24 22 24 26 28 28 26 26 27 29 26 22 21 21 21 29 27 25 27 30 32 33 29 30 36 35 35 33 32 35 37 38 38 40 39 34 32 30 30 28 28 28
25 24 26 26 27 29 30 29 29 29 30 28 27 25 22 25 30 27 30 27 29 29 30 30 33 36 39 40 38 38 38 38 37 38 39 37 33 31 30 30 27 25 26
27 26 25 28 28 31 30 31 30 30 30 31 30 25 27 33 32 32 31 32 29 30 28 30 27 26 34 24 33 33 32 37 38 38 47 36 33 31 28 26 27 31 33
25 26 28 32 32 31 26 28 29 31 31 31 30 26 30 37 32 33 33 33 34 30 30 29 31 31 28 30 35 33 31 31 34 39 36 29 16 19 16 25 27 29 31
23 26 28 30 29 34 35 33 26 27 28 30 29 29 27 30 32 31 33 32 33 32 29 26 30 32 30 30 31 23 23 19 26 29 24 24 26 27 24 27 24 21 20
22 22 24 28 30 33 36 39 38 34 33 33 38 37 36 38 36 31 32 32 29 31 29 27 26 27 28 28 29 29 30 27 29 32 29 27 30 26 24 27 24 23 22
22 22 22 23 25 27 29 30 31 31 35 33 36 37 35 35 35 32 31 31 28 28 28 28 22 24 28 29 31 32 30 27 25 23 24 26 23 22 24 22 21 20 19
23 23 22 23 24 24 23 24 28 31 34 36 36 35 33 33 33 31 29 26 24 24 23 21 18 21 22 20 19 19 19 21 22 20 19 21 21 21 20 19 16 14 12
Wind_Direction
216 215 215 217 216 217 211 216 225 220 215 239 213 210 216 217 227 227 200 229 230 222 217 225 244 234 240 242 251 249 257 265 269 272 286 299 303 311 303 310 317 333 325
220 218 220 219 215 217 215 214 222 232 226 223 217 226 216 225 235 237 229 221 228 231 231 234 238 243 256 246 245 256 258 262 272 279 277 281 291 293 309 316 317 311 311
217 219 219 221 220 217 221 215 216 230 238 225 219 221 227 222 224 239 236 232 229 232 235 240 243 246 245 239 240 250 256 267 270 272 280 281 281 283 294 305 309 314 327
220 216 217 219 221 221 222 223 219 222 232 235 229 224 222 226 229 227 233 235 232 235 240 242 246 250 250 253 256 244 257 257 265 272 278 282 284 287 286 299 300 304 307
219 227 214 218 222 224 223 224 225 224 227 233 236 232 226 225 228 228 228 232 237 238 239 244 250 249 249 249 245 254 250 261 264 269 273 276 280 285 287 293 298 305 298
193 228 244 220 222 227 227 225 227 228 229 230 231 235 233 227 231 230 232 230 235 239 242 245 250 250 254 256 252 241 239 243 254 261 268 270 273 286 288 288 290 296 300
217 229 238 240 243 232 231 229 230 232 227 232 233 233 235 242 229 233 236 233 231 239 241 243 245 251 257 267 265 256 254 252 258 264 266 270 274 277 281 285 287 281 287
289 255 238 226 237 238 235 232 233 234 236 233 235 237 237 241 243 238 236 240 242 238 236 245 251 243 235 250 262 256 263 264 261 263 270 279 282 285 283 283 289 295 299
359 336 283 262 253 240 240 247 246 240 238 236 236 239 241 244 239 244 243 241 242 248 248 242 238 245 253 248 241 246 253 253 261 274 280 288 293 290 285 278 268 273 279
355 350 355 342 294 274 260 253 241 240 242 246 246 240 242 246 247 246 241 241 241 245 252 256 249 246 247 252 255 254 254 258 259 257 260 271 275 279 281 276 273 263 266
329 332 333 332 332 323 284 254 274 261 253 244 240 240 246 242 250 252 249 245 239 244 247 247 253 261 257 255 255 256 259 263 264 267 268 269 271 272 277 283 277 272 275
311 312 313 316 310 313 307 299 284 291 283 262 254 252 248 249 251 246 248 252 250 243 240 248 253 254 256 259 260 262 265 266 265 260 259 261 261 263 266 268 271 273 273
291 297 298 301 305 302 301 311 310 315 291 285 279 270 266 261 257 257 263 256 257 257 251 246 243 249 254 256 256 260 263 263 261 261 257 255 254 257 261 261 262 268 271
289 286 292 291 296 297 291 288 290 281 279 281 283 294 290 266 268 268 261 270 266 269 265 260 255 248 245 248 256 255 252 253 255 258 258 259 258 254 254 257 258 257 259
284 282 278 285 285 286 290 283 276 267 274 277 271 278 281 296 293 290 268 253 259 276 271 271 262 257 251 251 249 247 251 260 260 256 249 250 251 251 250 252 254 256 257
276 274 274 273 279 278 277 286 286 284 279 276 275 271 274 274 282 280 285 281 275 263 259 259 261 251 250 251 250 248 246 249 248 252 256 253 248 249 249 251 252 253 256
279 269 268 271 272 275 282 279 282 281 289 290 287 285 277 277 279 285 282 285 288 277 267 251 254 260 254 252 250 248 245 246 246 245 243 247 248 248 249 249 251 253 255
283 273 274 275 272 272 271 274 280 276 278 279 283 289 290 295 281 282 287 291 278 284 281 253 256 258 252 252 253 251 249 251 245 244 247 244 241 246 248 249 249 249 250
290 281 271 268 268 268 268 267 266 268 273 279 278 276 286 284 286 282 289 288 290 279 280 266 257 258 252 251 257 257 254 249 253 254 253 248 253 240 243 244 244 247 250
290 277 277 274 269 267 267 267 267 267 268 268 271 270 274 271 278 287 288 290 289 278 280 267 264 262 252 247 258 258 263 260 260 253 248 249 249 243 238 238 240 247 251
295 284 280 272 272 270 264 264 264 264 264 264 266 270 269 269 281 288 288 288 288 282 279 266 254 253 269 252 258 257 259 260 263 262 255 238 243 246 246 247 252 256 263
296 289 283 275 268 266 269 267 264 264 262 263 264 261 267 269 275 280 283 284 285 283 276 269 259 255 259 263 266 275 278 278 276 282 290 292 269 263 274 272 262 262 264
299 291 284 280 278 270 269 268 270 263 261 264 264 262 268 270 274 274 274 276 278 277 275 269 259 249 250 258 263 268 274 280 271 252 267 263 265 270 259 277 272 266 268
304 292 284 277 274 274 269 264 262 265 264 261 263 263 267 270 271 268 267 268 269 271 271 265 255 259 249 243 252 262 265 262 254 248 248 259 250 250 260 258 259 255 250
323 314 305 294 285 279 274 266 262 263 261 263 265 267 266 267 266 263 262 263 264 262 260 257 250 258 259 252 249 250 252 250 244 240 246 245 249 252 250 251 250 250 253
336 330 319 308 299 289 282 277 272 266 263 263 263 263 263 259 257 253 252 253 255 253 253 249 242 247 248 244 238 236 235 235 240 245 252 252 246 237 234 229 224 218 224